Location: *
(31.5025°N, 103.5714°E)
Time: 18:55:34
(UTC+00:00)

Daily predictions for brighter satellites

Satellite Brightness Start Highest point End
(mag) Time Altitude Azimuth Time Altitude Azimuth Time Altitude Azimuth
YAOGAN 1 3.6 12:02:16 10° S 12:06:26 49° W 12:10:38 10° NNW
ATLAS 2AS CENTAUR R/B 4.3 12:02:06 10° N 12:07:10 19° NE 12:10:44 13° ENE
Cosmos 1536 Rocket 3.8 12:04:06 10° N 12:08:14 43° E 12:12:20 10° SSE
Meteor 1-12 Rocket 4.3 12:05:57 10° S 12:11:39 62° E 12:17:17 10° NNE
H-2A R/B 3.3 12:14:40 18° ENE 12:15:15 18° ENE 12:18:33 10° NNE
GEOS 3 Rocket 3.6 12:11:46 14° SE 12:16:11 64° NE 12:21:15 10° NNW
ADEOS Rocket 4.0 12:10:09 10° NE 12:16:48 35° E 12:23:41 10° SSE
Cosmos 1025 Rocket 3.1 12:15:55 10° N 12:20:04 49° E 12:23:27 15° SSE
Cosmos 2154 Rocket 4.5 12:15:15 10° NNE 12:20:56 37° E 12:25:00 18° SE
GPS 2-05 Rocket1 3.4 12:18:54 10° WNW 12:21:27 33° N 12:22:09 28° NE
Cosmos 2151 Rocket 4.2 12:17:25 10° SSW 12:21:46 58° W 12:26:06 10° N
Cosmos 1939 Rocket 3.0 12:19:50 10° S 12:23:42 71° WSW 12:27:33 10° NNW
Cosmos 2237 4.2 12:18:26 10° NNW 12:24:10 71° ENE 12:29:12 13° SSE
Cosmos 2322 Rocket 3.3 12:19:55 10° NW 12:25:11 44° WSW 12:30:27 10° S
HJ-1C 3.3 12:21:51 10° SSE 12:25:11 89° ENE 12:28:34 10° N
SJ-6B 3.7 12:25:36 30° E 12:26:13 32° ENE 12:29:53 10° N
Cosmos 1441 Rocket 3.1 12:23:34 10° S 12:27:24 65° E 12:31:11 10° NNE
DELTA 2 R/B (1) 3.9 12:25:30 10° SW 12:30:48 44° SE 12:32:56 30° E
Cosmos 2251 Rocket 3.7 12:25:47 10° N 12:31:02 52° ENE 12:33:48 26° SE
IRS-1A Rocket 4.4 12:26:22 10° SSE 12:32:11 84° WSW 12:37:55 10° NNW
Cosmos 2184 Rocket 4.0 12:30:42 10° N 12:36:56 89° E 12:43:14 10° S
Cosmos 1544 3.0 12:34:38 10° S 12:38:12 82° W 12:41:49 10° N
COSMOS 2428 3.4 12:33:36 10° N 12:38:38 32° ENE 12:39:25 31° E
SJ-11-01 4.2 12:37:10 25° SSE 12:39:51 65° ENE 12:44:33 10° N
Cosmos 2322 3.6 12:38:27 10° NNW 12:44:10 68° ENE 12:46:46 33° SE
TIMED 4.4 12:42:09 10° N 12:46:29 64° ENE 12:47:06 56° ESE
Orbus 7S? 4.0 12:43:33 10° SW 12:47:06 79° NW 12:55:01 10° NE
Genesis I 3.4 12:43:27 10° NW 12:47:19 65° WSW 12:48:18 44° S
Meteor 1-21 4.4 12:41:57 10° NNW 12:47:33 75° W 12:53:10 10° S
Cosmos 2219 Rocket 2.7 12:43:17 10° N 12:48:26 37° ENE 12:48:49 37° ENE
FREGAT/IRIS 3.6 12:52:02 42° W 12:52:02 42° W 12:54:31 10° NNW
Cosmos 1707 4.4 12:49:33 10° N 12:51:14 22° NNE 12:51:14 22° NNE
Lacrosse 4 Rocket 3.4 12:51:11 10° NW 12:54:32 25° WSW 12:57:53 10° SSW
Cosmos 2219 3.1 12:51:36 10° S 12:57:16 64° ESE 13:02:57 10° NNE
Cosmos 2360 Rocket 3.0 12:52:44 10° NNW 12:58:10 49° WSW 13:03:05 12° S
Resurs 01 Rocket 3.6 13:01:59 17° NNE 13:01:59 17° NNE 13:03:18 10° NNE
COSMOS 2455 2.7 13:00:22 10° NNW 13:06:24 87° ENE 13:07:57 53° SSE
ASTEX 1 4.2 13:06:37 10° N 13:11:18 48° W 13:15:59 10° SSW
USA 186 3.9 13:16:50 28° WNW 13:16:50 28° WNW 13:18:58 10° NNW
Cosmos 962 Rocket 4.4 13:09:48 10° N 13:16:06 70° E 13:16:43 66° ESE
SPOT 3 Rocket 3.9 13:20:29 47° SSW 13:21:43 61° WSW 13:26:49 10° NNW
ARGOS 3.0 13:22:28 83° N 13:22:28 83° N 13:27:39 10° NNW
Cosmos 1295 Rocket 4.4 13:22:32 10° N 13:28:43 79° W 13:29:46 62° SSW
Cosmos 2333 Rocket 2.2 13:26:22 10° NNW 13:31:40 76° NW 13:31:40 76° NW
Cosmos 2181 Rocket 4.0 13:36:35 74° SW 13:37:04 79° W 13:43:21 10° N
Cosmos 2341 Rocket 4.0 13:33:55 10° N 13:40:02 79° WNW 13:40:02 79° WNW
NOSS 0 Rocket 4.5 13:37:09 10° NNW 13:41:42 48° N 13:41:42 48° N
Cosmos 2237 Rocket 3.7 13:45:06 10° N 13:47:47 27° N 13:47:47 27° N
H-2A R/B 3.4 13:55:17 34° WNW 13:55:17 34° WNW 13:58:55 10° NNW
CZ-3A R/B 4.2 12:49:19 10° WSW 13:55:53 63° S 13:57:50 58° SSE
ATLAS 2AS CENTAUR R/B 2.9 13:51:39 10° NNW 13:58:11 70° NW 13:58:11 70° NW
Cosmos 2219 Rocket 4.4 14:27:50 10° NW 14:30:33 20° WNW 14:30:33 20° WNW
ATLAS 3B R/B 4.3 19:24:18 26° E 19:24:18 26° E 19:28:19 10° NE
Cosmos 1943 Rocket 4.2 19:35:10 23° ENE 19:35:10 23° ENE 19:37:40 10° NE
Atlas Centaur 2 3.4 19:52:27 48° ESE 19:52:27 48° ESE 19:58:12 10° E
CENTAUR R/B 2.9 20:08:35 53° E 20:08:35 53° E 20:14:03 10° NE
USA 238 DEB 4.5 20:16:48 38° NNW 20:16:48 38° NNW 20:21:43 10° NNE
USA 238 4.5 20:16:53 38° NNW 20:16:53 38° NNW 20:21:52 10° NNE
Cosmos 2369 Rocket 2.7 20:18:20 58° NE 20:18:20 58° NE 20:22:56 10° NNE
Meteor 1-20 Rocket 4.4 20:20:53 10° N 20:26:21 66° E 20:26:29 66° E
H-2A R/B 4.3 20:25:30 10° NE 20:28:11 27° E 20:28:11 27° E
Cosmos 44 4.2 20:32:41 43° SE 20:33:07 44° ESE 20:37:51 10° NE
ISS -0.9 20:35:27 18° NE 20:35:27 18° NE 20:37:15 10° E
PSLV R/B 4.2 20:35:47 10° NNE 20:39:32 55° ENE 20:39:32 55° ENE
SL-24 DEB 4.5 20:46:52 47° SE 20:48:04 67° E 20:52:42 10° N
Sakura Rocket 4.0 20:50:00 41° SSE 20:50:00 41° SSE 20:55:26 10° E
IDEFIX/ARIANE 42P 2.5 20:51:44 10° NNE 20:57:01 88° WNW 20:58:38 46° SSW
USA 215 3.3 20:53:33 10° NE 20:59:58 60° NW 21:01:52 44° W
ADEOS II 4.4 21:00:25 10° NW 21:00:30 10° NW 21:00:30 10° NW
NOSS 3-2 (C) 4.1 21:03:09 33° NW 21:03:22 33° NW 21:08:58 10° NNE
PSLV R/B 4.1 21:00:09 10° SSE 21:04:18 73° ENE 21:08:26 10° N
Cosmos 2344 4.3 21:03:15 29° WNW 21:04:39 31° NW 21:11:29 10° NNE
Cosmos 1125 Rocket 3.7 20:59:30 10° NNW 21:04:49 73° ENE 21:10:05 10° SSE
Meteor 1-25 Rocket 4.3 21:00:42 10° NNW 21:06:09 49° W 21:06:21 49° W
SeaSat 1 3.0 21:02:37 10° N 21:07:06 40° WNW 21:07:06 40° WNW
Meteor 1-14 Rocket 4.0 21:02:00 10° NNW 21:07:30 69° W 21:13:01 10° S
Cosmos 1400 Rocket 2.6 21:09:20 78° WNW 21:09:20 78° WNW 21:13:12 10° N
Lacrosse 5 rocket 4.3 21:08:28 10° N 21:11:00 15° NE 21:13:34 10° ENE
GPS 2-04 Rocket1 2.8 21:11:34 57° NW 21:12:14 71° NNE 21:16:15 10° E
CZ-2C R/B 3.2 21:08:07 10° NNE 21:12:54 51° E 21:17:47 10° S
ATLAS 3B R/B 3.0 21:11:35 37° W 21:13:14 43° NW 21:19:29 10° NNE
Cosmos 1943 Rocket 3.2 21:16:43 27° WNW 21:16:43 27° WNW 21:21:09 10° N
Cosmos 1602 3.6 21:13:22 10° NNW 21:17:16 62° W 21:17:29 61° WSW
Cosmos 783 Rocket 4.3 21:16:11 30° SSW 21:18:44 75° WNW 21:23:57 10° NNE
Hubble Space Telescope 1.1 21:18:28 46° SSW 21:19:03 50° S 21:23:03 10° E
H-2A R/B 2.0 21:20:10 30° S 21:20:10 30° S 21:23:56 10° SE
Cosmos 1092 Rocket 4.1 21:18:26 30° SW 21:21:07 48° W 21:27:03 10° N
Cosmos 1812 3.3 21:17:38 10° S 21:21:24 58° E 21:25:13 10° NNE
Cosmos 1862 Rocket 3.5 21:19:58 16° S 21:23:32 85° W 21:28:01 10° N
Cosmos 372 Rocket 4.4 21:20:48 10° NW 21:25:31 36° W 21:30:11 10° SSW
CZ-4B R/B 3.4 21:24:53 10° NNE 21:29:24 69° ESE 21:33:51 10° S
Aureole 2 Rocket 3.2 21:27:59 16° SSE 21:29:51 38° ESE 21:32:25 10° NNE
Cosmos 773 Rocket 4.1 21:26:47 10° S 21:31:58 74° ESE 21:37:08 10° NNE
Cosmos 1461 3.8 21:30:02 10° NNW 21:34:00 49° ENE 21:38:04 10° SE
Palapa 6 Rocket 4.2 21:33:24 21° SSW 21:34:22 23° S 21:37:55 10° SE
Atlas Centaur 2 2.9 21:35:04 23° W 21:40:03 83° S 21:48:31 10° E
Centaur AC-119 3.4 21:38:28 27° WSW 21:40:20 54° S 21:51:07 10° E
Meteor 1-31 Rocket 2.7 21:36:57 10° N 21:40:52 86° WNW 21:44:44 10° SSW
COSMOS 2487 2.4 21:42:37 10° NNW 21:46:06 81° ENE 21:49:32 10° SSE
Intelsat 5-1 Rocket 4.2 21:37:11 18° WSW 21:47:23 49° S 21:52:42 10° ESE
Meteor 1-27 Rocket 3.8 21:41:45 10° SSW 21:47:39 71° W 21:53:30 10° N
Cosmos 1346 Rocket 4.0 21:45:15 10° N 21:49:12 47° E 21:53:08 10° SSE
Cosmos 1538 Rocket 3.9 21:48:25 10° SSW 21:53:37 88° WNW 21:58:48 10° NNE
CZ-4B R/B 3.7 21:50:09 10° N 21:53:45 55° WNW 21:57:17 10° SSW
Okean 1-7 3.8 21:50:48 10° S 21:55:05 56° E 21:59:24 10° NNE
ATLAS 3B CENTAUR R/B 4.4 21:56:16 12° SW 21:56:35 12° SW 21:58:51 10° SSW
Iridium 4 Rocket 4.4 21:55:09 14° SW 21:57:53 22° W 22:01:28 10° NNW
Okean O Rocket 3.4 21:53:49 10° NNE 21:57:55 35° E 22:01:58 10° SSE
CENTAUR R/B 3.9 21:55:48 15° W 21:58:57 21° NW 22:03:51 10° N
CZ-3B R/B 1.3 21:58:44 19° SW 21:59:57 29° S 22:03:31 10° ESE
Cosmos 1908 Rocket 4.1 21:56:15 10° N 22:00:33 63° E 22:04:50 10° SSE
BREEZE-M DEB (TANK) 3.5 21:54:22 10° SW 22:00:41 53° SE 22:03:16 10° ENE
CZ-3 R/B 3.4 21:29:17 11° W 22:01:41 67° SSW 22:09:27 10° ESE
Cosmos 2369 Rocket 4.0 22:00:09 11° WNW 22:01:48 13° NW 22:04:14 10° NNW
H-2A R/B 4.1 22:02:03 10° NW 22:04:02 14° WNW 22:04:45 13° W
Meteor 1-11 Rocket 3.6 22:00:21 10° NNW 22:05:54 68° W 22:11:22 10° S
Cosmos 1833 4.1 22:00:39 10° NNW 22:06:15 78° WSW 22:11:51 10° SSE
Cosmos 1484 Rocket 2.8 22:05:58 10° NNE 22:09:43 79° E 22:13:24 10° S
Cosmos 1666 4.0 22:07:44 10° N 22:11:20 44° E 22:14:56 10° SSE
ISS -3.0 22:08:33 10° WNW 22:11:34 32° SW 22:14:36 10° SSE
Cosmos 1553 Rocket 4.0 22:06:45 10° NNW 22:12:55 65° W 22:18:59 10° S
Cosmos 1733 Rocket 3.9 22:09:48 10° NNW 22:13:38 29° W 22:17:27 10° SSW
Timation 2 Rocket 4.1 22:08:07 10° NNW 22:14:08 76° ENE 22:20:05 10° SSE
Meteor PRIRODA 4.2 22:16:04 10° N 22:19:29 37° WNW 22:22:54 10° SW
PAYLOAD B 4.3 22:16:54 10° NNE 22:22:32 89° WNW 22:28:08 10° SSW
Cosmos 1340 2.7 22:19:28 10° NNW 22:23:11 60° W 22:26:54 10° S
Cosmos 1315 Rocket 4.0 22:19:56 10° SW 22:23:18 24° WNW 22:26:42 10° NNW
Cosmos 1655 Rocket 4.3 22:18:05 10° SSW 22:23:57 44° W 22:29:54 10° N
ASTRO E2 2.9 22:20:59 10° WSW 22:24:56 64° SSE 22:28:54 10° E
Helios 1A Rocket 2.9 22:26:28 10° N 22:30:29 61° WNW 22:34:30 10° SSW
